Regional Weather Roundup
Issued by NWS Newport/Morehead, NC

Current Version | Previous Version | Graphics & Text | Print | Product List | Glossary Off
Versions: 1 2 3 4 5 6 7 8 9 10 11 12 13 14 15 16 17 18 19 20 21 22 23 24 25 26 27 28 29 30 31 32 33 34 35 36 37 38 39 40 41 42 43 44 45 46 47 48 49 50

000
ASUS42 KMHX 121710
RWRMHX
WEATHER ROUNDUP FOR EASTERN NORTH CAROLINA
NATIONAL WEATHER SERVICE NEWPORT/MOREHEAD CITY NC
100 PM EDT SAT JUL 12 2014

NOTE: "FAIR" INDICATES FEW OR NO CLOUDS BELOW 12,000 FEET
WITH NO SIGNIFICANT WEATHER AND/OR OBSTRUCTIONS TO VISIBILITY

NCZ015>017-031-032-045>047-102-103-121800-
NORTH COAST

CITY           SKY/WX    TMP DP  RH WIND       PRES   REMARKS
EDENTON        PTSUNNY   80  71  74 E8        30.22S
ELIZABETH CITY MOSUNNY   82  70  66 VRB5      30.22S
KITTY HAWK     MOSUNNY   79  70  73 CALM      30.22S
MANTEO         NOT AVBL

$$

NCZ045>047-081-094-103-104-121800-
CENTRAL COAST

CITY           SKY/WX    TMP DP  RH WIND       PRES   REMARKS
FRISCO         MOSUNNY   83  69  62 NE8       30.21S
SWANQUARTER      N/A     84 N/A N/A NW2       30.18S

$$

NCZ095-097-098-100-101-121800-
SOUTHERN COAST

CITY           SKY/WX    TMP DP  RH WIND       PRES   REMARKS
BEAUFORT       PTSUNNY   83  73  72 SE9       30.20F
CEDAR ISLAND     N/A     82 N/A N/A VRB2      30.27S
JACKSONVILLE   SUNNY     86  72  62 NE5       30.20F
NEWPORT        NOT AVBL
PINEY ISLAND   SUNNY     82  74  76 NE7       30.21F
WILMINGTON     PTSUNNY   86  73  65 S8        30.20F


$$

NCZ011>013-027>030-043-044-078>080-089-090>093-098-121800-
COASTAL PLAIN

CITY           SKY/WX    TMP DP  RH WIND       PRES   REMARKS
AHOSKIE        SUNNY     82  68  62 NE5       30.22F
CLINTON        MOSUNNY   84  73  67 CALM      30.21F
ELIZABETHTOWN  MOSUNNY   85  69  59 CALM      30.21F
GOLDSBORO      NOT AVBL
GREENVILLE     MOSUNNY   84  70  61 CALM      30.22F
HAVELOCK       SUNNY     84  69  60 VRB3      30.22S
KENANSVILLE    PTSUNNY   84  69  60 CALM      30.23S
KINSTON        MOSUNNY   84  68  58 CALM      30.22F
NEW BERN       MOSUNNY   85  69  58 NE3       30.21F
RICHLANDS      PTSUNNY   84  70  61 NE7       30.21S
ROANOKE RAPIDS NOT AVBL
ROCKY MOUNT    MOSUNNY   85  70  60 E5        30.22F
WASHINGTON     SUNNY     82  67  59 CALM      30.22F
WHITEVILLE     SUNNY     85  71  62 CALM      30.21S

$$

AMZ130-135-150-152-154-156-158-170-250-252-270-ANZ085-086-088-633-658-670-121800-
MARINE OBSERVATIONS

STATION/POSITION TIME  TEMP    WIND        PRES    WAVE   SWELL
                       AIR SEA DIR/SP/G            HT/PER HT/PER
                 (UTC) (F)     (DEG/KT/KT) (MB)    (FT/S) (FT/S)
CHESAPEAKE LIGHT NOT AVBL
BUOY 44014       1700   75 77   60/  8/ 10 1023.1    2/ 7   2/ 7
DUCK             1700   74 75  360/  7/  7 1022.8
2E DUCK          1700                        N/A     2/10
OREGON INLET     1700   76 76   40/  7/  9 1023.2
BUOY 44095       1700      75                N/A     2/ 7
HATTERAS CG      1700   78 81   20/  8/ 10 1023.4
DIAMOND BUOY     1700          VRB 10/ 12  1023.0    2/ 8   2/ 8
17S OCRACOKE INL NOT AVBL
CAPE LOOKOUT     1600   80      50/  7/  8 1023.1
BEAUFORT LAB     1700   81 82  130/  9/ 10 1022.5
30 SE NEW RIVER  1700   79 83   40/  2/  4 1023.7    2/ 8   2/ 8
5 SE WRIGHTSVILL 1600   76 82  110/  4/  6 1023.9
FRYING PAN BUOY  NOT AVBL
BUOY 41001       NOT AVBL
BUOY 41002       1639   80 83  170/  8/  8 1023.8    2/ 8   2/ 8
BUOY 41004       1700   74 82  180/  6/  8 1023.2    2/ 8   2/ 8

$$



USA.gov is the U.S. government's official web portal to all federal, state and local government web resources and services.